STARLINK-38223, 100190

Orbit data source: Space-Track

STARLINK-38223, 100190 is a payload satellite owned by SpaceX/Seattle (US) in SSO that was launched on Sat, 01 Aug 2026 UTC launched from the Air Force Western Test Range (AFWTR). Payload-class satellites include a variety of spacecraft equipped with specific instruments for various scientific and technological missions. These include communications satellites like Starlink; space stations such as the ISS; scientific satellites like the Hubble; Earth observation satellites from companies like Planet Labs, Umbra, and HawkEye 360; GPS; miniature CubeSats for education and research; and military/defense satellites.

Loading next visibility...
Identifier
100190, 2026-175M
Orbit
SSO
Country
Flag of USUS
Related business
Manufacturer
SpaceX/Seattle
Mission
Operational spacecraft
Bus & Motor
STARLINK V2MO, Unknown motor
Mass
575 kg wet, ~530 kg dry
Launch date (UTC)
2026-08-01 (2 months ago)
Launch vehicle
Unknown
Launch site
Air Force Western Test Range (AFWTR)
Object type
Payload
Rocket body
Debris
Shape & HBR
BOX + PAN, 17.7 m
Radar Cross Section
Large (>1 m²)

Expand to show TLE details & history
Last TLE update: 1 day ago

TLE from 1 day ago
0 STARLINK-38223
1 A0190U 26175M   26263.01475266  .00303765  00000-0  18923-2 0  9990
2 A0190  97.2837 105.4862 0001057  53.5473 306.5890 15.76069563  9103
Epoch: 2026-09-20T00:21Z
TLE epoch observation values (Epoch: 2026-09-20T00:21:14.629Z)
Latitude
-0.00005°
Longitude
101.26024°
Altitude
344.335 km
Speed
7.702 km/s
True Right ascension
07h 01m 56s
True Declination
0° 00' 00"
Sunlit
Object was in daylight at epoch
Visualization orbit readout
Latitude
Unknown
Longitude
Unknown
Altitude
Unknown
Speed
Unknown
Apparent Right ascension
Unknown
Apparent Declination
Unknown
Sunlit
N/A
Visualization observer readout
Local Sidereal Time
22:07:31
Azimuth
Unknown
Elevation
Unknown
Doppler factor
Unknown
Orbital elements
Apogee altitude
339.185 km
Perigee altitude
337.766 km
Semi-major axis
6,716.613 km
Eccentricity
0.00011
Inclination
97.2837°
RAAN
105.4862°
Arg. of periapsis
53.5473°
True anomaly
306.57927°
Mean anomaly
306.589°
Eccentric anomaly
306.58414°
Mean motion
3.94292 °/min
Orbital period
91.3 mins
BSTAR
0.0018923
Loading maneuver chart data...
Computing Atmospheric mass density...
Loading historical data...
Loading historical data...
Loading historical data...
Loading historical data...
Loading historical data...
Loading historical data...
Loading historical data...

Documentation

Showing up to 5 results
|